Regional Weather Roundup
Issued by NWS

Home | Current Version | Previous Version | Graphics & Text | Print | Product List | Glossary On
Versions: 1 2 3 4 5 6 7 8 9 10 11 12 13 14 15 16 17 18 19 20 21 22 23 24 25 26 27 28 29 30 31 32 33 34 35 36 37 38 39 40 41 42 43 44 45 46 47 48 49 50
000
ASUS43 KOAX 290410
RWRNE

WEATHER ROUNDUP FOR NEBRASKA
NATIONAL WEATHER SERVICE OMAHA NE
1100 PM CDT FRI AUG 28 2015

NOTES: SATELLITE DATA IS BEING USED TO AUGMENT CLOUD COVER ABOVE
       12000 FEET.
       "FAIR" INDICATES FEW OR NO CLOUDS BELOW 12,000 FEET WITH NO
       SIGNIFICANT WEATHER AND/OR OBSTRUCTIONS TO VISIBILITY.

  * THESE STATIONS DO NOT REPORT WEATHER SUCH AS RAIN...SNOW OR FOG.

NEZ001>004-019>022-054>056-290500-
NEBRASKA PANHANDLE

CITY           SKY/WX    TMP DP  RH WIND       PRES   REMARKS
SCOTTSBLUFF    CLEAR     64  55  72 E3        30.16R
ALLIANCE       CLEAR     61  49  64 SW3       30.15R
CHADRON        CLEAR     65  51  60 W6        30.09R
KIMBALL        CLEAR     61  46  57 SE6       30.22S
SIDNEY         CLEAR     56  41  57 CALM      30.20R
$$

NEZ057>060-069>072-079>082-290500-
SOUTHWEST NEBRASKA

CITY           SKY/WX    TMP DP  RH WIND       PRES   REMARKS
NORTH PLATTE   CLEAR     61  58  90 E5        30.09R
IMPERIAL       CLEAR     67  59  75 CALM      30.12R
LEXINGTON      CLEAR     62  60  91 CALM      30.08R
MCCOOK         CLEAR     65  60  84 MISG      30.09R
OGALLALA       CLEAR     63  57  80 CALM      30.12S
$$

NEZ005>010-023>029-035>040-094-290500-
NORTH CENTRAL NEBRASKA

CITY           SKY/WX    TMP DP  RH WIND       PRES   REMARKS
VALENTINE      CLEAR     62  59  90 CALM      30.07R
AINSWORTH      CLEAR     62  61  97 CALM      30.08S
BROKEN BOW     CLEAR     62  59  90 N3        30.07R
O`NEILL        CLEAR     63  63  99 CALM      30.06R FOG
ORD            CLEAR     61  59  93 N5        30.04R
THEDFORD       CLEAR     61  60  96 CALM      30.11R
$$

NEZ041-046>049-061>064-073>077-083>087-290500-
SOUTH CENTRAL NEBRASKA

CITY           SKY/WX    TMP DP  RH WIND       PRES   REMARKS
GRAND ISLAND   CLEAR     62  59  90 N5        30.04R
AURORA         PTCLDY    63  63 100 N3        30.02S
HASTINGS       CLEAR     62  59  90 NW3       30.04R
HEBRON         CLEAR     65  62  87 NW3       30.00S
HOLDREGE       CLEAR     61  59  92 CALM      30.07R
KEARNEY *      CLEAR     64  57  77 N5        30.05S
YORK           PTCLDY    64  63  94 N8        30.02R
$$

NEZ011>018-030>034-042>045-290500-
NORTHEAST NEBRASKA

CITY           SKY/WX    TMP DP  RH WIND       PRES   REMARKS
NORFOLK        MOCLDY    62  59  90 N7        30.02S
ALBION         CLEAR     64  60  89 NE6       30.05R
BLAIR          CLOUDY    62  60  93 N10G16    29.97S FOG
COLUMBUS *     CLOUDY   N/A N/A N/A N12       30.01S
FREMONT        CLOUDY    64  60  85 N10       29.99S
TEKAMAH        CLOUDY    63  61  93 N14       29.98R
WAYNE          CLEAR     59  58  94 CALM      30.02S
$$

NEZ050>053-065>068-078-088>093-290500-
SOUTHEAST NEBRASKA

CITY           SKY/WX    TMP DP  RH WIND       PRES   REMARKS
LINCOLN        CLOUDY    66  60  81 N12       29.99R
OMAHA EPPLEY   CLOUDY    64  62  93 N12       29.95R
BEATRICE       CLOUDY    66  61  83 N12       29.97F
FALLS CITY     CLEAR     67  65  93 NW7       29.93S
NEBRASKA CITY  CLOUDY    66  65  94 NW8       29.96R
PLATTSMOUTH    CLOUDY    64  62  92 NW8       29.96R
$$

NEZ044-045-051>053-067-290500-
OMAHA AREA

CITY           SKY/WX    TMP DP  RH WIND       PRES   REMARKS
OMAHA EPPLEY   CLOUDY    64  62  93 N12       29.95R
BLAIR          CLOUDY    62  60  93 N10G16    29.97S FOG
FREMONT        CLOUDY    64  60  85 N10       29.99S
MILLARD        CLOUDY    65  62  90 N7        29.96S
OFFUTT AFB     CLOUDY    64  63  94 NW8G18    29.95R FOG
PLATTSMOUTH    CLOUDY    64  62  92 NW8       29.96R
WAHOO          CLOUDY    64  61  89 N8        29.98S
$$




USA.gov is the U.S. government's official web portal to all federal, state and local government web resources and services.